This demonstration page uses our WeatherBlox Daily Observations layout. Learn more.

40.92945, -100.16068

Hourly Observations for May 15, 2016

Temp ( °F °C ) Dew Point ( °F °C ) Humidity (%) Winds ( mph kmh ) Pressure ( in mb ) Visibility ( mi km ) Precip ( " mm )
12:15 am 00:15 Clear 44 6.9 33 0.7 65 65 S 5 7 30.3 1026 10 16.0934 N/A
12:35 am 00:35 Clear 45 7 33 0.5 64 64 SSE 6 9 30.27 1025 10 16.0934 N/A
12:55 am 00:55 Clear 46 7.8 33 0.4 60 60 S 3 6 30.27 1025 10 16.0934 N/A
1:15 am 01:15 Clear 45 7.2 35 1.7 68 68 SSE 3 6 30.27 1025 10 16.0934 N/A
1:35 am 01:35 Clear 45 7.4 35 1.5 66 66 S 5 7 30.27 1025 10 16.0934 N/A
1:55 am 01:55 Clear 45 7.2 34 1.3 66 66 SE 3 6 30.27 1025 10 16.0934 N/A
2:15 am 02:15 Clear 46 7.7 33 0.3 60 60 SSE 3 6 30.27 1025 10 16.0934 N/A
2:35 am 02:35 Clear 45 7 33 0.6 64 64 S 3 6 30.27 1025 10 16.0934 N/A
2:55 am 02:55 Clear 43 6.3 34 1 69 69 Calm 30.27 1025 10 16.0934 N/A
3:15 am 03:15 Clear 44 6.9 33 0.8 65 65 Calm 30.27 1025 10 16.0934 N/A
3:35 am 03:35 Clear 42 5.7 36 2.2 78 78 Calm 30.27 1025 10 16.0934 N/A
3:55 am 03:55 Clear 42 5.7 35 1.6 75 75 Calm 30.27 1025 10 16.0934 N/A
4:15 am 04:15 Mostly Cloudy 43 6.2 35 1.4 72 72 Calm 30.27 1025 10 16.0934 N/A
4:35 am 04:35 Partly Cloudy 44 6.6 34 1.3 69 69 SSE 3 6 30.27 1025 10 16.0934 N/A
4:55 am 04:55 Mostly Cloudy 44 6.6 35 1.7 71 71 ESE 6 9 30.27 1025 10 16.0934 N/A
5:15 am 05:15 Partly Cloudy 44 6.8 34 1.2 68 68 SE 5 7 30.27 1025 10 16.0934 N/A
5:35 am 05:35 Clear 44 6.5 35 1.9 73 73 SE 5 7 30.24 1024 10 16.0934 N/A
5:55 am 05:55 Clear 43 6.2 36 2.3 76 76 SSE 5 7 30.27 1025 10 16.0934 N/A
6:15 am 06:15 Partly Cloudy 44 6.5 35 1.7 72 72 SSE 5 7 30.27 1025 10 16.0934 N/A
6:35 am 06:35 Partly Cloudy 44 6.5 35 1.6 71 71 SE 5 7 30.24 1024 10 16.0934 N/A
6:55 am 06:55 Mostly Cloudy 44 6.9 35 1.5 69 69 SE 5 7 30.24 1024 10 16.0934 N/A
7:15 am 07:15 Cloudy 45 7 35 1.6 69 69 SSE 5 7 30.24 1024 10 16.0934 N/A
7:35 am 07:35 Cloudy 45 7.1 35 1.9 70 70 SSE 6 9 30.24 1024 10 16.0934 N/A
7:55 am 07:55 Cloudy 46 7.6 35 1.6 66 66 S 7 11 30.24 1024 10 16.0934 N/A
8:15 am 08:15 Cloudy 46 7.9 34 1.1 62 62 S 10 17 30.24 1024 10 16.0934 N/A
8:35 am 08:35 Cloudy 47 8.5 35 1.4 61 61 S 9 15 30.24 1024 10 16.0934 N/A
8:55 am 08:55 Cloudy 48 9 35 1.6 60 60 S 9 15 30.21 1023 10 16.0934 N/A
9:15 am 09:15 Cloudy 49 9.3 36 2 61 61 S 8 13 30.21 1023 10 16.0934 N/A
9:35 am 09:35 Cloudy 49 9.6 35 1.9 59 59 S 8 13 30.21 1023 10 16.0934 N/A
9:55 am 09:55 Cloudy 50 10 36 2.1 58 58 S 9 15 30.21 1023 10 16.0934 N/A
10:15 am 10:15 Cloudy 51 10.6 36 2 56 56 S 10 17 30.18 1022 10 16.0934 N/A
10:35 am 10:35 Cloudy 51 10.8 35 1.9 54 54 SSE 6 9 30.18 1022 10 16.0934 N/A
10:55 am 10:55 Cloudy 52 11 35 1.9 54 54 S 10 17 30.18 1022 10 16.0934 N/A
11:15 am 11:15 Cloudy 53 11.5 35 1.7 51 51 S 10 17 30.15 1021 10 16.0934 N/A
11:35 am 11:35 Cloudy 53 11.7 36 2 52 52 SSE 13 20 30.15 1021 10 16.0934 N/A
11:55 am 11:55 Cloudy 53 11.7 35 1.4 50 50 SSE 10 17 30.15 1021 10 16.0934 N/A
12:15 pm 12:15 Cloudy 53 11.6 35 1.6 51 51 S 9 15 30.15 1021 10 16.0934 N/A
12:35 pm 12:35 Cloudy 53 11.7 34 1.1 48 48 S 10 17 30.12 1020 10 16.0934 N/A
12:55 pm 12:55 Cloudy 53 11.7 35 1.6 50 50 S 12 19 30.12 1020 10 16.0934 N/A
1:15 pm 13:15 Cloudy 53 11.6 34 1.3 50 50 S 10 17 30.12 1020 10 16.0934 N/A
1:35 pm 13:35 Cloudy 54 12.1 34 1.3 48 48 S 15 24 30.12 1020 10 16.0934 N/A
1:55 pm 13:55 Cloudy 54 12.2 35 1.4 48 48 S 10 17 30.09 1019 10 16.0934 N/A
2:15 pm 14:15 Cloudy 54 12.2 34 1.1 47 47 S 17 28 30.09 1019 10 16.0934 N/A
2:35 pm 14:35 Cloudy 54 12.1 34 0.9 47 47 S 17 28 30.09 1019 10 16.0934 N/A
2:55 pm 14:55 Cloudy 54 12.2 34 1.1 47 47 SSE 17 28 30.09 1019 10 16.0934 N/A
3:15 pm 15:15 Cloudy 54 12.1 35 1.9 50 50 S 17 28 30.09 1019 10 16.0934 N/A
3:35 pm 15:35 Cloudy 52 11.1 34 1 50 50 S 16 26 30.09 1019 10 16.0934 N/A
3:55 pm 15:55 Cloudy 51 10.5 35 1.6 54 54 S 16 26 30.12 1020 10 16.0934 N/A
4:15 pm 16:15 Cloudy 50 10 35 1.5 56 56 SSE 12 19 30.12 1020 10 16.0934 N/A
4:35 pm 16:35 Cloudy 50 10 35 1.4 55 55 SE 12 19 30.09 1019 10 16.0934 N/A
4:55 pm 16:55 Cloudy 50 10 35 1.8 57 57 SE 9 15 30.09 1019 10 16.0934 N/A
5:15 pm 17:15 Cloudy 50 10 35 1.7 57 57 SE 9 15 30.09 1019 10 16.0934 N/A
5:35 pm 17:35 Cloudy 50 10 35 1.9 57 57 SE 10 17 30.09 1019 10 16.0934 N/A
5:55 pm 17:55 Cloudy 49 9.7 36 2.2 60 60 SE 9 15 30.09 1019 10 16.0934 N/A
6:15 pm 18:15 Cloudy 49 9.6 37 2.6 62 62 SE 10 17 30.09 1019 10 16.0934 N/A
6:35 pm 18:35 Cloudy 49 9.7 37 2.9 63 63 SE 9 15 30.09 1019 10 16.0934 N/A
6:55 pm 18:55 Cloudy 49 9.5 37 2.9 64 64 ESE 12 19 30.06 1018 10 16.0934 N/A
7:15 pm 19:15 Cloudy 49 9.5 37 2.6 62 62 SE 12 19 30.09 1019 10 16.0934 N/A
7:35 pm 19:35 Cloudy 49 9.2 37 2.7 64 64 SE 8 13 30.09 1019 10 16.0934 N/A
7:55 pm 19:55 Cloudy 49 9.2 37 2.6 64 64 ESE 9 15 30.06 1018 10 16.0934 N/A
8:15 pm 20:15 Cloudy 49 9.4 37 2.6 63 63 ESE 9 15 30.06 1018 10 16.0934 N/A
8:35 pm 20:35 Cloudy 49 9.2 37 2.9 65 65 SE 9 15 30.09 1019 10 16.0934 N/A
8:55 pm 20:55 Cloudy 48 9.1 37 3 66 66 SE 8 13 30.09 1019 10 16.0934 N/A
9:15 pm 21:15 Cloudy 48 8.7 38 3.3 69 69 ESE 9 15 30.09 1019 10 16.0934 N/A
9:35 pm 21:35 Cloudy 47 8.6 38 3.5 71 71 ESE 12 19 30.09 1019 10 16.0934 N/A
9:55 pm 21:55 Cloudy 47 8.5 38 3.6 72 72 ESE 10 17 30.09 1019 10 16.0934 N/A
10:15 pm 22:15 Cloudy 47 8.3 39 3.8 74 74 ESE 13 20 30.09 1019 10 16.0934 N/A
10:35 pm 22:35 Cloudy 47 8.1 39 4.1 76 76 SE 13 20 30.09 1019 10 16.0934 N/A
10:55 pm 22:55 Cloudy 46 8 39 4.1 77 77 ESE 14 22 30.09 1019 10 16.0934 N/A
11:15 pm 23:15 Cloudy 46 8 39 4.1 77 77 SE 14 22 30.09 1019 10 16.0934 N/A
11:35 pm 23:35 Cloudy 47 8.1 39 4 76 76 SE 13 20 30.09 1019 10 16.0934 N/A
11:55 pm 23:55 Cloudy 47 8.1 39 4 76 76 SE 12 19 30.09 1019 10 16.0934 N/A

Powered by AerisWeather